RH
92 95 95 93 91 94 93 91 98 99 95 92 81 86 82 90 89 85 85 83 78 76 75 75 74 74 71 71 66 61 59 59 58 57 56 56 56 56
97 96 94 90 89 90 91 89 94 96 99 88 96 90 88 84 84 76 79 83 82 79 76 74 72 65 62 60 57 57 57 57 57 57 56 56 56 59
94 94 93 88 90 88 88 91 93 91 98 98 94 86 87 85 81 80 78 74 69 74 66 58 56 56 56 56 56 57 57 58 58 58 58 58 56 54
91 91 92 88 92 88 88 91 94 90 91 97 89 88 86 83 80 73 64 51 55 55 56 55 55 56 56 57 58 57 56 58 61 62 61 60 62 61
87 86 85 84 87 87 89 89 85 82 83 86 90 80 68 60 59 58 58 57 46 52 52 54 56 54 58 57 59 61 63 64 65 65 64 63 63 62
84 82 83 84 87 89 82 77 74 75 76 75 72 73 69 69 66 59 57 50 48 43 48 58 59 62 62 62 61 63 66 65 63 63 64 64 63 62
87 86 89 84 80 75 76 72 68 70 71 82 73 68 72 63 59 56 52 51 47 53 52 49 51 51 50 61 63 64 64 65 66 66 66 64 62 60
100 99 86 81 76 73 70 71 64 65 77 75 89 63 66 61 58 57 59 57 45 58 62 55 56 52 52 52 61 65 65 67 67 64 63 67 66 63
99 92 78 73 75 71 74 75 73 74 68 61 60 60 63 63 73 76 66 70 66 60 65 56 54 51 50 49 66 70 69 68 62 61 64 66 65 64
70 64 65 67 68 68 66 73 67 64 64 65 64 66 63 63 64 72 77 72 66 63 64 74 58 56 53 54 70 67 64 64 62 64 64 66 67 67
66 70 74 72 68 68 66 68 58 57 66 69 66 64 67 69 66 71 79 81 67 62 63 68 66 67 64 58 50 61 62 64 65 66 67 70 70 69
73 71 72 63 66 63 52 49 47 45 63 64 56 58 68 68 76 65 81 90 86 80 70 85 79 74 82 60 58 57 53 61 66 66 70 72 72 63
66 65 62 59 55 59 66 56 48 55 70 63 57 64 68 70 69 68 75 89 91 86 64 84 91 81 84 81 66 66 62 57 54 58 68 73 74 73
58 57 60 60 53 52 64 60 56 75 66 62 69 74 76 80 79 74 70 75 80 90 81 93 93 91 90 86 80 70 68 67 68 68 63 69 75 72
53 56 62 60 52 54 50 52 66 64 65 73 74 79 82 81 87 84 84 85 90 90 91 92 92 89 91 90 88 81 84 74 73 82 80 74 72 70
62 63 57 57 58 55 59 63 58 61 68 73 76 75 80 83 81 83 90 86 87 86 86 88 91 94 94 89 90 91 79 91 82 83 84 80 74 69
68 58 46 44 47 51 59 63 67 67 78 75 81 80 74 79 81 82 88 88 89 87 86 81 81 84 88 94 94 86 89 87 84 89 89 84 78 71
69 56 49 46 49 49 55 59 66 72 76 82 83 80 83 86 87 87 88 91 90 84 89 85 86 86 83 75 88 90 85 87 85 86 88 89 85 71
72 67 68 64 60 62 65 73 76 76 89 88 87 87 87 88 85 88 86 86 85 83 87 87 91 94 94 90 67 73 92 84 83 83 80 80 86 81
76 78 78 74 72 74 75 80 81 82 86 87 90 90 92 91 90 87 82 84 82 82 87 85 93 94 95 91 90 79 68 86 83 87 84 78 76 74
76 78 76 75 75 78 80 82 84 85 87 88 88 90 92 94 92 86 80 80 80 82 89 86 82 71 90 92 91 79 74 66 74 88 88 88 86 80
76 75 72 74 76 82 84 86 87 87 89 90 90 90 89 90 90 86 81 86 83 84 88 88 83 86 92 92 90 86 80 72 67 69 71 76 91 95
81 79 81 83 85 86 88 89 89 86 88 89 88 87 88 90 83 83 83 81 84 87 84 86 82 80 88 91 91 88 88 86 79 81 80 69 73 73
Wind_Speed
6 5 3 2 2 1 1 3 4 3 4 2 1 4 2 5 6 5 5 8 5 4 4 6 6 6 6 6 6 7 7 8 9 10 11 12 13 13
3 5 3 1 3 2 2 1 0 2 3 1 1 1 3 2 4 4 4 5 6 4 3 3 3 4 5 6 6 7 7 9 9 11 12 12 13 13
4 5 4 5 5 4 2 2 2 0 2 1 1 1 2 1 2 2 2 2 2 2 2 3 3 4 5 5 6 7 8 10 11 12 12 12 12 12
7 6 6 3 5 5 3 3 3 2 2 4 2 2 2 3 3 2 2 3 2 2 4 3 3 4 5 6 8 10 10 9 10 12 13 12 13 13
6 7 6 7 6 5 4 4 3 3 3 3 3 2 2 2 2 2 3 2 1 4 4 5 6 7 5 6 8 9 9 10 10 10 11 11 12 12
7 7 6 6 7 6 5 5 4 5 5 5 3 3 2 2 2 1 2 1 2 2 4 4 4 5 7 9 10 8 7 8 9 10 10 11 13 14
8 8 7 8 10 8 5 5 5 5 4 4 3 2 2 2 2 2 0 2 1 1 3 3 3 4 4 4 4 6 7 8 10 11 12 13 13 13
8 6 7 11 12 13 12 10 6 5 4 2 2 2 3 2 2 1 0 1 2 1 4 4 2 2 2 3 6 10 11 12 11 9 8 11 13 13
7 7 7 6 8 8 12 11 10 9 5 3 3 2 3 3 3 2 2 2 2 1 4 3 1 3 2 4 10 10 10 9 4 6 9 10 11 13
7 8 8 7 6 7 6 6 5 6 5 4 4 4 2 4 3 2 3 2 4 1 1 3 2 4 4 3 4 4 4 7 4 11 9 12 15 16
7 6 7 7 9 8 6 5 4 4 5 7 5 3 2 6 5 3 2 2 1 1 1 2 2 5 3 2 1 3 5 6 10 10 15 16 15 16
6 6 9 6 8 7 4 4 3 3 3 3 2 2 3 4 4 1 2 2 1 2 2 4 2 3 3 1 3 4 5 7 9 15 16 13 12 7
6 4 2 7 5 5 5 3 2 5 4 3 2 2 2 3 3 2 3 1 2 3 2 2 2 3 2 4 5 4 5 6 9 10 11 11 10 9
5 3 3 4 4 4 4 3 3 7 3 2 2 2 2 3 2 1 3 3 4 6 6 4 3 3 5 7 6 2 6 8 8 7 6 8 11 14
4 5 6 5 5 3 1 2 5 3 3 2 3 2 2 3 2 1 3 5 4 5 5 5 6 6 6 7 8 8 9 4 9 8 6 7 8 7
7 4 3 4 5 3 2 2 2 3 3 3 3 2 2 3 3 2 3 4 5 6 3 3 4 3 5 8 9 11 9 7 5 7 8 8 8 8
5 2 2 3 3 3 3 3 3 3 4 3 4 4 4 4 4 3 3 4 6 7 6 4 5 7 8 10 9 10 10 10 9 9 8 10 9 9
4 3 4 4 4 4 4 4 3 5 4 4 5 5 4 4 4 4 4 5 6 7 8 6 5 5 3 7 18 9 7 8 8 8 8 9 11 8
5 4 4 5 4 4 4 4 3 4 3 4 5 5 5 4 5 5 5 6 7 7 7 6 4 3 7 9 6 17 9 9 9 10 9 9 10 11
4 5 6 5 5 5 5 5 4 4 4 5 5 5 5 6 6 6 6 7 7 8 8 7 5 5 7 6 6 9 12 10 9 10 10 10 11 20
6 6 5 5 5 5 5 5 5 5 5 4 5 5 6 6 7 7 7 11 11 8 9 9 7 10 6 6 8 11 9 16 16 11 9 10 12 11
6 6 6 5 6 6 5 5 5 5 6 6 6 5 5 5 7 8 8 9 9 9 9 8 8 7 6 8 10 12 10 10 10 19 22 20 9 7
8 7 6 6 6 6 6 6 6 6 6 6 6 5 5 5 6 7 7 8 9 9 9 9 8 7 9 9 13 11 15 13 10 10 9 17 23 27
Wind_Direction
190 171 145 147 140 154 222 211 166 183 223 80 293 45 45 60 62 70 73 79 88 59 5 330 322 319 314 320 320 320 313 308 303 298 293 289 289 299
107 125 122 138 130 124 166 181 118 188 158 85 88 43 43 67 62 65 50 36 30 10 333 341 329 334 318 302 301 302 306 305 302 298 297 300 305 315
111 121 123 169 136 121 112 96 102 225 129 117 87 67 77 101 86 77 49 59 56 35 336 347 321 304 294 302 313 307 304 301 295 294 302 302 302 295
130 134 135 123 99 103 118 101 116 97 139 134 122 117 75 70 68 85 71 73 46 354 331 325 321 327 316 308 301 292 288 291 298 298 300 307 307 306
128 130 140 128 114 119 98 105 99 91 70 117 124 113 112 116 128 92 54 25 14 23 5 340 308 291 291 307 303 293 290 294 296 298 299 298 298 296
106 110 112 118 128 123 109 103 106 95 100 104 92 103 101 72 87 166 173 17 316 350 331 322 306 285 288 290 293 289 292 289 292 295 295 295 298 299
94 96 98 105 106 107 115 112 103 100 96 99 108 129 135 162 199 85 28 321 295 325 309 283 290 289 280 260 270 280 281 285 296 298 297 293 293 296
109 90 87 93 101 101 100 95 97 111 106 117 121 144 133 136 146 110 305 294 263 123 324 299 312 301 256 244 284 291 290 289 283 281 307 311 302 295
110 103 90 82 78 86 84 81 80 83 92 121 129 122 143 166 140 166 219 244 265 351 305 284 329 303 263 287 310 292 272 249 207 316 305 298 295 293
101 106 111 106 108 104 109 95 84 71 75 84 87 126 127 157 175 175 185 253 263 253 277 276 359 297 318 309 305 325 220 176 313 319 310 306 303 295
105 110 117 120 115 119 114 119 112 96 63 89 101 131 152 204 185 163 225 261 271 162 56 307 346 310 303 279 247 21 339 304 302 312 316 308 300 296
117 129 129 124 120 110 118 127 132 136 135 109 77 69 42 111 103 220 154 221 275 262 140 334 315 343 301 226 265 293 308 303 297 310 310 306 301 293
143 134 116 122 118 129 141 142 137 144 129 120 129 136 123 129 131 123 130 135 254 267 305 349 284 305 284 306 290 292 302 294 306 305 301 300 290 280
148 146 153 149 145 151 138 200 177 137 137 148 162 163 168 173 166 187 313 294 257 259 285 288 266 257 290 290 280 253 288 287 282 283 292 284 282 288
146 159 171 184 180 151 189 209 138 154 155 181 182 179 184 177 201 295 270 268 274 271 265 251 260 276 269 266 282 292 309 296 286 274 270 282 286 282
153 148 170 172 176 169 137 133 164 176 190 192 190 181 188 222 246 254 263 283 287 282 269 255 257 239 261 256 261 275 273 272 281 288 288 286 279 270
142 147 177 185 189 194 198 197 191 194 197 190 189 203 226 246 260 249 268 279 278 290 291 294 290 267 252 253 271 254 267 269 268 281 287 290 283 280
166 191 195 199 208 205 208 206 206 215 214 214 222 227 231 244 267 272 270 270 287 291 294 301 306 315 285 254 218 260 271 269 283 283 278 284 289 285
205 204 209 205 212 211 213 211 214 213 208 222 227 234 241 244 265 267 270 272 275 278 280 286 283 272 290 290 287 222 255 277 288 286 282 277 278 284
200 214 219 219 219 219 215 213 221 217 219 228 229 232 234 240 249 257 268 271 276 278 281 277 251 238 258 278 292 282 255 266 271 279 285 283 277 282
214 219 217 218 218 218 220 218 220 223 216 220 229 229 235 238 247 253 264 265 262 271 276 275 274 270 260 269 258 267 274 252 254 264 277 283 288 287
209 216 213 214 218 216 217 216 218 224 228 222 230 231 234 234 249 256 261 264 265 263 264 272 282 273 264 254 268 278 282 291 271 271 265 260 269 275
214 213 210 211 213 215 213 212 216 227 224 227 230 233 230 236 240 247 255 257 262 266 270 277 278 268 261 263 270 277 278 286 289 288 270 259 262 264